Time,TemperatureF,DewpointF,PressureIn,WindDirection,WindDirectionDegrees,WindSpeedMPH,WindSpeedGustMPH,Humidity,HourlyPrecipIn,Conditions,Clouds,dailyrainin,SoftwareType,DateUTC
2013-05-26 00:01:00,41.4,38.1,29.74,NNW,338,6.0,6.9,88,0.00,,,0.00,WUHU216HW,2013-05-26 04:01:00,
2013-05-26 00:06:00,41.4,38.1,29.74,NW,315,5.4,9.6,88,0.00,,,0.00,WUHU216HW,2013-05-26 04:06:00,
2013-05-26 00:11:00,41.0,37.5,29.74,West,270,3.8,11.9,87,0.00,,,0.00,WUHU216HW,2013-05-26 04:11:00,
2013-05-26 00:16:00,41.0,37.5,29.74,WNW,293,5.4,11.9,87,0.00,,,0.00,WUHU216HW,2013-05-26 04:16:00,
2013-05-26 00:21:00,41.0,37.5,29.73,NNE,23,2.7,8.9,87,0.00,,,0.00,WUHU216HW,2013-05-26 04:21:00,
2013-05-26 00:26:00,41.0,37.5,29.73,NW,315,1.1,7.6,87,0.00,,,0.00,WUHU216HW,2013-05-26 04:26:00,
2013-05-26 00:31:00,40.9,37.3,29.73,NNW,338,3.8,7.6,87,0.00,,,0.00,WUHU216HW,2013-05-26 04:31:00,
2013-05-26 00:36:00,40.9,37.3,29.73,North,0,7.4,11.4,87,0.00,,,0.00,WUHU216HW,2013-05-26 04:36:00,
2013-05-26 00:41:00,40.7,37.4,29.73,NNW,338,4.7,11.4,88,0.00,,,0.00,WUHU216HW,2013-05-26 04:41:00,
2013-05-26 00:46:00,40.7,37.7,29.73,SW,225,5.1,8.1,89,0.00,,,0.00,WUHU216HW,2013-05-26 04:46:00,
2013-05-26 00:51:00,40.7,37.7,29.73,NW,315,5.1,8.7,89,0.00,,,0.00,WUHU216HW,2013-05-26 04:51:00,
2013-05-26 00:56:00,40.7,37.7,29.73,WNW,293,4.0,8.7,89,0.00,,,0.00,WUHU216HW,2013-05-26 04:56:00,
2013-05-26 01:01:00,40.7,38.0,29.72,NNE,23,1.1,8.1,90,0.00,,,0.00,WUHU216HW,2013-05-26 05:01:00,
2013-05-26 01:06:00,40.7,38.0,29.72,NNW,338,4.7,8.1,90,0.00,,,0.00,WUHU216HW,2013-05-26 05:06:00,
2013-05-26 01:11:00,40.7,38.0,29.72,NNW,338,1.1,7.6,90,0.00,,,0.00,WUHU216HW,2013-05-26 05:11:00,
2013-05-26 01:16:00,40.7,38.0,29.72,South,180,4.0,7.6,90,0.00,,,0.00,WUHU216HW,2013-05-26 05:16:00,
2013-05-26 01:21:00,40.7,38.0,29.72,SW,225,1.8,8.5,90,0.00,,,0.00,WUHU216HW,2013-05-26 05:21:00,
2013-05-26 01:26:00,40.5,37.8,29.72,WSW,248,2.7,8.5,90,0.00,,,0.00,WUHU216HW,2013-05-26 05:26:00,
2013-05-26 01:31:00,40.7,38.0,29.72,NW,315,2.9,6.3,90,0.00,,,0.00,WUHU216HW,2013-05-26 05:31:00,
2013-05-26 01:36:00,40.5,37.8,29.72,West,270,6.3,7.4,90,0.00,,,0.00,WUHU216HW,2013-05-26 05:36:00,
2013-05-26 01:41:00,40.5,38.1,29.72,WSW,248,0.4,8.1,91,0.00,,,0.00,WUHU216HW,2013-05-26 05:41:00,
2013-05-26 01:46:00,40.5,38.1,29.72,NNE,23,2.7,8.5,91,0.00,,,0.00,WUHU216HW,2013-05-26 05:46:00,
2013-05-26 01:51:00,40.5,38.1,29.72,WNW,293,2.0,8.5,91,0.00,,,0.00,WUHU216HW,2013-05-26 05:51:00,
2013-05-26 01:56:00,40.3,37.9,29.72,NW,315,4.9,9.4,91,0.00,,,0.00,WUHU216HW,2013-05-26 05:56:00,
2013-05-26 02:01:00,40.5,38.1,29.71,NNE,23,4.9,9.4,91,0.00,,,0.00,WUHU216HW,2013-05-26 06:01:00,
2013-05-26 02:06:00,40.5,38.1,29.71,WSW,248,3.4,4.9,91,0.00,,,0.00,WUHU216HW,2013-05-26 06:06:00,
2013-05-26 02:11:00,40.5,38.1,29.71,WSW,248,6.5,6.7,91,0.00,,,0.00,WUHU216HW,2013-05-26 06:11:00,
2013-05-26 02:16:00,40.3,37.9,29.71,WSW,248,2.2,10.7,91,0.00,,,0.00,WUHU216HW,2013-05-26 06:16:00,
2013-05-26 02:21:00,40.3,37.9,29.71,NNW,338,3.8,10.7,91,0.00,,,0.00,WUHU216HW,2013-05-26 06:21:00,
2013-05-26 02:26:00,40.5,38.1,29.71,NW,315,7.6,7.8,91,0.00,,,0.00,WUHU216HW,2013-05-26 06:26:00,
2013-05-26 02:31:00,40.3,37.9,29.71,West,270,2.7,7.8,91,0.00,,,0.00,WUHU216HW,2013-05-26 06:31:00,
2013-05-26 02:36:00,40.3,37.9,29.71,NNW,338,5.4,7.6,91,0.00,,,0.00,WUHU216HW,2013-05-26 06:36:00,
2013-05-26 02:41:00,40.5,38.1,29.71,WSW,248,1.8,6.0,91,0.00,,,0.00,WUHU216HW,2013-05-26 06:41:00,
2013-05-26 02:46:00,40.5,38.1,29.71,West,270,2.7,7.2,91,0.00,,,0.00,WUHU216HW,2013-05-26 06:46:00,
2013-05-26 02:51:00,40.5,38.1,29.71,West,270,5.6,7.8,91,0.00,,,0.00,WUHU216HW,2013-05-26 06:51:00,
2013-05-26 02:56:00,40.5,38.1,29.70,NNW,338,1.1,8.1,91,0.00,,,0.00,WUHU216HW,2013-05-26 06:56:00,
2013-05-26 03:01:00,40.5,38.1,29.70,West,270,3.4,8.1,91,0.00,,,0.00,WUHU216HW,2013-05-26 07:01:00,
2013-05-26 03:06:00,40.5,38.1,29.70,WNW,293,3.6,7.6,91,0.00,,,0.00,WUHU216HW,2013-05-26 07:06:00,
2013-05-26 03:11:00,40.7,38.3,29.70,NNE,23,1.3,7.6,91,0.00,,,0.00,WUHU216HW,2013-05-26 07:11:00,
2013-05-26 03:16:00,40.7,38.3,29.70,NNE,23,2.5,6.3,91,0.00,,,0.00,WUHU216HW,2013-05-26 07:16:00,
2013-05-26 03:21:00,40.7,38.3,29.70,NW,315,2.9,8.9,91,0.00,,,0.00,WUHU216HW,2013-05-26 07:21:00,
2013-05-26 03:26:00,40.7,38.3,29.70,WNW,293,5.4,8.9,91,0.01,,,0.01,WUHU216HW,2013-05-26 07:26:00,
2013-05-26 03:31:00,40.7,38.3,29.70,WSW,248,2.5,6.7,91,0.01,,,0.01,WUHU216HW,2013-05-26 07:31:00,
2013-05-26 03:36:00,40.7,38.3,29.70,WNW,293,4.0,4.7,91,0.01,,,0.01,WUHU216HW,2013-05-26 07:36:00,
2013-05-26 03:41:00,40.7,38.3,29.70,WSW,248,1.8,6.0,91,0.02,,,0.02,WUHU216HW,2013-05-26 07:41:00,
2013-05-26 03:46:00,40.7,38.5,29.70,NNW,338,3.8,6.0,92,0.03,,,0.03,WUHU216HW,2013-05-26 07:46:00,
2013-05-26 03:51:00,40.5,38.3,29.71,WNW,293,3.4,8.7,92,0.03,,,0.03,WUHU216HW,2013-05-26 07:51:00,
2013-05-26 03:56:00,40.5,38.3,29.70,North,0,2.5,8.7,92,0.04,,,0.04,WUHU216HW,2013-05-26 07:56:00,
2013-05-26 04:01:00,40.5,38.3,29.71,NNE,23,3.1,8.5,92,0.04,,,0.04,WUHU216HW,2013-05-26 08:01:00,
2013-05-26 04:06:00,40.5,38.3,29.70,NW,315,6.0,9.2,92,0.05,,,0.05,WUHU216HW,2013-05-26 08:06:00,
2013-05-26 04:11:00,40.3,38.2,29.71,NW,315,3.1,10.5,92,0.05,,,0.05,WUHU216HW,2013-05-26 08:11:00,
2013-05-26 04:16:00,40.3,38.2,29.70,West,270,5.4,10.5,92,0.05,,,0.05,WUHU216HW,2013-05-26 08:16:00,
2013-05-26 04:21:00,40.3,38.2,29.71,WSW,248,5.1,7.8,92,0.04,,,0.05,WUHU216HW,2013-05-26 08:21:00,
2013-05-26 04:26:00,40.3,38.2,29.71,WNW,293,10.1,10.1,92,0.05,,,0.06,WUHU216HW,2013-05-26 08:26:00,
2013-05-26 04:31:00,40.3,38.2,29.71,NW,315,5.4,10.1,92,0.05,,,0.06,WUHU216HW,2013-05-26 08:31:00,
2013-05-26 04:36:00,40.3,38.2,29.71,NNE,23,5.1,10.1,92,0.04,,,0.06,WUHU216HW,2013-05-26 08:36:00,
2013-05-26 04:41:00,40.3,38.2,29.71,South,180,2.7,8.5,92,0.03,,,0.06,WUHU216HW,2013-05-26 08:41:00,
2013-05-26 04:46:00,40.3,38.2,29.71,WNW,293,2.7,8.5,92,0.03,,,0.06,WUHU216HW,2013-05-26 08:46:00,
2013-05-26 04:51:00,40.3,38.2,29.71,North,0,5.1,6.9,92,0.03,,,0.06,WUHU216HW,2013-05-26 08:51:00,
2013-05-26 04:56:00,40.3,38.2,29.71,NNE,23,2.9,6.9,92,0.02,,,0.06,WUHU216HW,2013-05-26 08:56:00,
2013-05-26 05:01:00,40.5,38.3,29.71,West,270,4.0,6.9,92,0.02,,,0.06,WUHU216HW,2013-05-26 09:01:00,
2013-05-26 05:06:00,40.5,38.3,29.72,NW,315,1.6,6.7,92,0.01,,,0.06,WUHU216HW,2013-05-26 09:06:00,
2013-05-26 05:11:00,40.5,38.6,29.72,NNW,338,3.1,7.8,93,0.01,,,0.06,WUHU216HW,2013-05-26 09:11:00,
2013-05-26 05:16:00,40.7,38.5,29.72,WNW,293,5.8,7.8,92,0.01,,,0.06,WUHU216HW,2013-05-26 09:16:00,
2013-05-26 05:21:00,40.7,38.5,29.72,NNE,23,1.3,7.2,92,0.00,,,0.06,WUHU216HW,2013-05-26 09:21:00,
2013-05-26 05:26:00,40.7,38.5,29.72,East,90,0.7,7.2,92,0.00,,,0.06,WUHU216HW,2013-05-26 09:26:00,
2013-05-26 05:31:00,40.7,38.5,29.72,West,270,2.7,7.6,92,0.00,,,0.06,WUHU216HW,2013-05-26 09:31:00,
2013-05-26 05:36:00,40.7,38.5,29.72,NE,45,2.5,7.6,92,0.01,,,0.07,WUHU216HW,2013-05-26 09:36:00,
2013-05-26 05:41:00,40.7,38.5,29.73,NNW,338,2.5,7.4,92,0.01,,,0.07,WUHU216HW,2013-05-26 09:41:00,
2013-05-26 05:46:00,40.9,38.7,29.73,WSW,248,7.6,8.3,92,0.01,,,0.07,WUHU216HW,2013-05-26 09:46:00,
2013-05-26 05:51:00,40.9,38.7,29.73,North,0,2.5,8.3,92,0.01,,,0.07,WUHU216HW,2013-05-26 09:51:00,
2013-05-26 05:56:00,40.9,38.7,29.73,NNW,338,6.3,7.6,92,0.01,,,0.07,WUHU216HW,2013-05-26 09:56:00,
2013-05-26 06:01:00,40.9,38.7,29.74,North,0,4.3,7.6,92,0.01,,,0.07,WUHU216HW,2013-05-26 10:01:00,
2013-05-26 06:06:00,41.0,38.9,29.74,SW,225,4.7,8.5,92,0.01,,,0.07,WUHU216HW,2013-05-26 10:06:00,
2013-05-26 06:11:00,41.0,38.9,29.74,West,270,1.6,8.5,92,0.02,,,0.08,WUHU216HW,2013-05-26 10:11:00,
2013-05-26 06:16:00,41.0,38.9,29.74,NNW,338,2.5,8.3,92,0.02,,,0.08,WUHU216HW,2013-05-26 10:16:00,
2013-05-26 06:20:00,41.0,39.2,29.74,North,0,2.5,7.6,93,0.02,,,0.08,WUHU216HW,2013-05-26 10:20:00,
2013-05-26 06:25:00,41.0,39.2,29.74,ENE,68,1.3,11.4,93,0.02,,,0.08,WUHU216HW,2013-05-26 10:25:00,
2013-05-26 06:30:00,41.0,39.2,29.74,NE,45,2.5,11.4,93,0.01,,,0.08,WUHU216HW,2013-05-26 10:30:00,
2013-05-26 06:35:00,41.0,38.9,29.74,West,270,4.5,11.2,92,0.02,,,0.09,WUHU216HW,2013-05-26 10:35:00,
2013-05-26 06:40:00,41.0,38.9,29.74,North,0,3.8,11.4,92,0.02,,,0.09,WUHU216HW,2013-05-26 10:40:00,
2013-05-26 06:45:00,41.2,39.3,29.75,NW,315,2.7,11.4,93,0.02,,,0.09,WUHU216HW,2013-05-26 10:45:00,
2013-05-26 06:50:00,41.2,39.1,29.75,WNW,293,2.0,9.2,92,0.02,,,0.09,WUHU216HW,2013-05-26 10:50:00,
2013-05-26 06:55:00,41.2,39.1,29.75,NNW,338,5.4,9.2,92,0.02,,,0.09,WUHU216HW,2013-05-26 10:55:00,
2013-05-26 07:00:00,41.2,39.1,29.75,NNE,23,1.8,5.4,92,0.02,,,0.09,WUHU216HW,2013-05-26 11:00:00,
2013-05-26 07:05:00,41.4,39.5,29.75,NNE,23,1.6,5.8,93,0.02,,,0.09,WUHU216HW,2013-05-26 11:05:00,
2013-05-26 07:10:00,41.4,39.5,29.76,NNW,338,1.6,6.0,93,0.01,,,0.09,WUHU216HW,2013-05-26 11:10:00,
2013-05-26 07:15:00,41.4,39.2,29.76,NW,315,3.1,9.2,92,0.01,,,0.09,WUHU216HW,2013-05-26 11:15:00,
2013-05-26 07:20:00,41.4,39.2,29.76,SSW,203,1.6,9.2,92,0.01,,,0.09,WUHU216HW,2013-05-26 11:20:00,
2013-05-26 07:25:00,41.6,39.4,29.76,WNW,293,1.1,7.8,92,0.02,,,0.10,WUHU216HW,2013-05-26 11:25:00,
2013-05-26 07:30:00,41.8,39.9,29.76,North,0,2.5,7.8,93,0.02,,,0.10,WUHU216HW,2013-05-26 11:30:00,
2013-05-26 07:35:00,41.9,39.8,29.76,NNW,338,6.7,7.2,92,0.01,,,0.10,WUHU216HW,2013-05-26 11:35:00,
2013-05-26 07:40:00,42.1,40.0,29.76,WNW,293,2.9,7.2,92,0.01,,,0.10,WUHU216HW,2013-05-26 11:40:00,
2013-05-26 07:45:00,42.1,40.0,29.77,WNW,293,7.6,7.8,92,0.01,,,0.10,WUHU216HW,2013-05-26 11:45:00,
2013-05-26 07:50:00,42.5,40.3,29.77,WSW,248,7.6,8.7,92,0.01,,,0.10,WUHU216HW,2013-05-26 11:50:00,
2013-05-26 07:55:00,42.7,40.5,29.77,NW,315,2.7,8.7,92,0.01,,,0.10,WUHU216HW,2013-05-26 11:55:00,
2013-05-26 08:00:00,42.8,40.7,29.77,NW,315,4.7,6.3,92,0.01,,,0.10,WUHU216HW,2013-05-26 12:00:00,
2013-05-26 08:05:00,42.8,40.7,29.77,NW,315,4.0,7.2,92,0.01,,,0.10,WUHU216HW,2013-05-26 12:05:00,
2013-05-26 08:10:00,43.0,40.9,29.78,WSW,248,1.8,10.3,92,0.01,,,0.10,WUHU216HW,2013-05-26 12:10:00,
2013-05-26 08:15:00,43.0,40.9,29.78,WNW,293,4.5,10.3,92,0.01,,,0.10,WUHU216HW,2013-05-26 12:15:00,
2013-05-26 08:20:00,43.2,40.8,29.78,NNE,23,2.7,4.9,91,0.01,,,0.10,WUHU216HW,2013-05-26 12:20:00,
2013-05-26 08:25:00,43.2,40.8,29.78,SW,225,2.0,5.4,91,0.00,,,0.10,WUHU216HW,2013-05-26 12:25:00,
2013-05-26 08:30:00,43.4,41.0,29.78,North,0,1.8,8.3,91,0.00,,,0.10,WUHU216HW,2013-05-26 12:30:00,
2013-05-26 08:35:00,43.6,40.9,29.79,WNW,293,2.2,8.3,90,0.00,,,0.10,WUHU216HW,2013-05-26 12:35:00,
2013-05-26 08:40:00,43.7,41.0,29.79,NW,315,1.1,4.9,90,0.00,,,0.10,WUHU216HW,2013-05-26 12:40:00,
2013-05-26 08:45:00,44.1,41.4,29.79,NW,315,3.4,5.1,90,0.00,,,0.10,WUHU216HW,2013-05-26 12:45:00,
2013-05-26 08:50:00,44.3,41.6,29.79,NNW,338,4.9,5.1,90,0.00,,,0.10,WUHU216HW,2013-05-26 12:50:00,
2013-05-26 08:55:00,44.5,41.8,29.79,NW,315,1.3,5.1,90,0.00,,,0.10,WUHU216HW,2013-05-26 12:55:00,
2013-05-26 09:00:00,44.6,41.9,29.79,NW,315,3.8,6.3,90,0.00,,,0.10,WUHU216HW,2013-05-26 13:00:00,
2013-05-26 09:05:00,45.0,42.3,29.79,NNW,338,0.9,6.5,90,0.00,,,0.10,WUHU216HW,2013-05-26 13:05:00,
2013-05-26 09:10:00,45.2,42.2,29.80,WNW,293,4.7,6.9,89,0.00,,,0.10,WUHU216HW,2013-05-26 13:10:00,
2013-05-26 09:15:00,45.4,42.0,29.80,NNW,338,1.8,6.9,88,0.00,,,0.10,WUHU216HW,2013-05-26 13:15:00,
2013-05-26 09:20:00,45.7,42.8,29.80,WNW,293,3.4,6.5,89,0.00,,,0.10,WUHU216HW,2013-05-26 13:20:00,
2013-05-26 09:25:00,46.4,43.1,29.80,East,90,2.2,12.1,88,0.00,,,0.10,WUHU216HW,2013-05-26 13:25:00,
2013-05-26 09:30:00,47.0,43.0,29.80,WSW,248,6.5,12.1,86,0.00,,,0.10,WUHU216HW,2013-05-26 13:30:00,
2013-05-26 09:35:00,47.3,43.4,29.80,West,270,2.0,6.7,86,0.00,,,0.10,WUHU216HW,2013-05-26 13:35:00,
2013-05-26 09:40:00,47.5,43.2,29.80,NNE,23,4.3,8.7,85,0.00,,,0.10,WUHU216HW,2013-05-26 13:40:00,
2013-05-26 09:45:00,48.1,43.7,29.80,NNW,338,0.9,8.7,85,0.00,,,0.10,WUHU216HW,2013-05-26 13:45:00,
2013-05-26 09:50:00,49.0,44.3,29.80,NNE,23,2.2,9.6,84,0.00,,,0.10,WUHU216HW,2013-05-26 13:50:00,
2013-05-26 09:55:00,50.0,44.7,29.80,NW,315,1.8,11.2,82,0.00,,,0.10,WUHU216HW,2013-05-26 13:55:00,
2013-05-26 10:00:00,50.8,44.8,29.80,North,0,4.0,11.2,80,0.00,,,0.10,WUHU216HW,2013-05-26 14:00:00,
2013-05-26 10:05:00,51.1,44.2,29.80,North,0,9.8,9.8,77,0.00,,,0.10,WUHU216HW,2013-05-26 14:05:00,
2013-05-26 10:10:00,51.1,43.8,29.81,NNE,23,8.9,9.8,76,0.00,,,0.10,WUHU216HW,2013-05-26 14:10:00,
2013-05-26 10:15:00,50.9,43.3,29.81,North,0,3.8,9.8,75,0.00,,,0.10,WUHU216HW,2013-05-26 14:15:00,
2013-05-26 10:20:00,51.3,42.7,29.81,North,0,6.5,9.8,72,0.00,,,0.10,WUHU216HW,2013-05-26 14:20:00,
2013-05-26 10:25:00,51.8,43.2,29.82,North,0,5.1,11.4,72,0.00,,,0.10,WUHU216HW,2013-05-26 14:25:00,
2013-05-26 10:30:00,51.8,42.0,29.82,NNW,338,5.6,11.4,69,0.00,,,0.10,WUHU216HW,2013-05-26 14:30:00,
2013-05-26 10:35:00,52.2,42.9,29.82,NNW,338,3.1,9.8,70,0.00,,,0.10,WUHU216HW,2013-05-26 14:35:00,
2013-05-26 10:40:00,53.3,43.7,29.82,WSW,248,4.0,9.8,70,0.00,,,0.10,WUHU216HW,2013-05-26 14:40:00,
2013-05-26 10:45:00,54.2,43.8,29.82,WNW,293,6.3,9.8,68,0.00,,,0.10,WUHU216HW,2013-05-26 14:45:00,
2013-05-26 10:50:00,54.4,44.0,29.82,North,0,2.9,8.5,68,0.00,,,0.10,WUHU216HW,2013-05-26 14:50:00,
2013-05-26 10:55:00,54.4,42.9,29.82,WNW,293,7.8,8.7,65,0.00,,,0.10,WUHU216HW,2013-05-26 14:55:00,
2013-05-26 11:00:00,54.4,42.9,29.82,NW,315,3.6,13.4,65,0.00,,,0.10,WUHU216HW,2013-05-26 15:00:00,
2013-05-26 11:05:00,54.9,42.9,29.82,ESE,113,4.5,13.4,64,0.00,,,0.10,WUHU216HW,2013-05-26 15:05:00,
2013-05-26 11:10:00,54.7,40.7,29.82,WNW,293,9.8,17.0,59,0.00,,,0.10,WUHU216HW,2013-05-26 15:10:00,
2013-05-26 11:15:00,54.2,41.4,29.82,NNE,23,13.4,17.0,62,0.00,,,0.10,WUHU216HW,2013-05-26 15:15:00,
2013-05-26 11:20:00,54.4,41.6,29.82,WNW,293,4.0,13.4,62,0.00,,,0.10,WUHU216HW,2013-05-26 15:20:00,
2013-05-26 11:25:00,55.6,42.8,29.83,South,180,4.0,10.5,62,0.00,,,0.10,WUHU216HW,2013-05-26 15:25:00,
2013-05-26 11:30:00,56.5,42.8,29.83,NW,315,7.4,11.6,60,0.00,,,0.10,WUHU216HW,2013-05-26 15:30:00,
2013-05-26 11:36:00,56.0,40.9,29.83,NE,45,1.3,11.6,57,0.00,,,0.10,WUHU216HW,2013-05-26 15:36:00,
2013-05-26 11:41:00,55.8,42.1,29.83,NNE,23,6.3,7.6,60,0.00,,,0.10,WUHU216HW,2013-05-26 15:41:00,
2013-05-26 11:46:00,55.8,42.1,29.83,NW,315,7.4,14.1,60,0.00,,,0.10,WUHU216HW,2013-05-26 15:46:00,
2013-05-26 11:51:00,56.3,41.2,29.84,WNW,293,8.3,14.1,57,0.00,,,0.10,WUHU216HW,2013-05-26 15:51:00,
2013-05-26 11:56:00,57.2,43.6,29.84,NW,315,4.7,10.1,60,0.00,,,0.10,WUHU216HW,2013-05-26 15:56:00,
2013-05-26 12:00:00,58.5,43.7,29.84,NNE,23,2.7,8.5,58,0.00,,,0.10,WUHU216HW,2013-05-26 16:00:00,
2013-05-26 12:05:00,58.7,43.0,29.84,NNW,338,3.8,12.8,56,0.00,,,0.10,WUHU216HW,2013-05-26 16:05:00,
2013-05-26 12:10:00,58.9,43.7,29.83,NW,315,7.6,12.8,57,0.00,,,0.10,WUHU216HW,2013-05-26 16:10:00,
2013-05-26 12:15:00,59.4,43.7,29.84,NW,315,4.0,11.2,56,0.00,,,0.10,WUHU216HW,2013-05-26 16:15:00,
2013-05-26 12:20:00,60.1,43.4,29.84,SSW,203,2.7,10.1,54,0.00,,,0.10,WUHU216HW,2013-05-26 16:20:00,
2013-05-26 12:25:00,60.1,42.4,29.84,NNW,338,6.9,11.0,52,0.00,,,0.10,WUHU216HW,2013-05-26 16:25:00,
2013-05-26 12:30:00,59.9,42.8,29.84,North,0,7.6,11.0,53,0.00,,,0.10,WUHU216HW,2013-05-26 16:30:00,
2013-05-26 12:36:00,59.8,42.1,29.84,West,270,7.6,12.5,52,0.00,,,0.10,WUHU216HW,2013-05-26 16:36:00,
2013-05-26 12:41:00,59.9,41.8,29.84,NW,315,4.0,12.5,51,0.00,,,0.10,WUHU216HW,2013-05-26 16:41:00,
2013-05-26 12:46:00,59.6,42.0,29.85,WSW,248,6.7,9.2,52,0.00,,,0.10,WUHU216HW,2013-05-26 16:46:00,
2013-05-26 12:51:00,59.4,42.8,29.84,SW,225,7.6,7.8,54,0.00,,,0.10,WUHU216HW,2013-05-26 16:51:00,
2013-05-26 12:56:00,59.2,41.1,29.85,NW,315,6.9,14.3,51,0.00,,,0.10,WUHU216HW,2013-05-26 16:56:00,
2013-05-26 13:01:00,59.2,41.6,29.85,ENE,68,6.7,14.3,52,0.00,,,0.10,WUHU216HW,2013-05-26 17:01:00,
2013-05-26 13:06:00,59.0,41.4,29.85,NNW,338,3.6,17.2,52,0.00,,,0.10,WUHU216HW,2013-05-26 17:06:00,
2013-05-26 13:11:00,59.0,41.4,29.85,East,90,2.5,17.2,52,0.00,,,0.10,WUHU216HW,2013-05-26 17:11:00,
2013-05-26 13:16:00,58.7,41.6,29.85,NE,45,2.2,12.1,53,0.00,,,0.10,WUHU216HW,2013-05-26 17:16:00,
2013-05-26 13:21:00,58.3,40.8,29.85,West,270,12.1,12.1,52,0.00,,,0.10,WUHU216HW,2013-05-26 17:21:00,
2013-05-26 13:26:00,58.0,41.4,29.86,WNW,293,4.7,12.1,54,0.00,,,0.10,WUHU216HW,2013-05-26 17:26:00,
2013-05-26 13:31:00,58.3,41.2,29.86,NNW,338,9.4,12.1,53,0.00,,,0.10,WUHU216HW,2013-05-26 17:31:00,
2013-05-26 13:36:00,58.5,41.4,29.86,WNW,293,1.8,11.4,53,0.00,,,0.10,WUHU216HW,2013-05-26 17:36:00,
2013-05-26 13:41:00,58.7,41.6,29.86,NNW,338,1.8,10.3,53,0.00,,,0.10,WUHU216HW,2013-05-26 17:41:00,
2013-05-26 13:46:00,58.3,40.8,29.87,NW,315,7.2,11.6,52,0.00,,,0.10,WUHU216HW,2013-05-26 17:46:00,
2013-05-26 13:51:00,58.0,41.0,29.86,South,180,4.9,11.6,53,0.00,,,0.10,WUHU216HW,2013-05-26 17:51:00,
2013-05-26 13:56:00,58.3,41.2,29.86,West,270,4.9,9.8,53,0.00,,,0.10,WUHU216HW,2013-05-26 17:56:00,
2013-05-26 14:01:00,59.0,42.0,29.87,NW,315,4.9,8.5,53,0.00,,,0.10,WUHU216HW,2013-05-26 18:01:00,
2013-05-26 14:06:00,59.4,41.8,29.87,West,270,2.9,10.3,52,0.00,,,0.10,WUHU216HW,2013-05-26 18:06:00,
2013-05-26 14:11:00,59.2,41.1,29.87,SW,225,9.8,10.3,51,0.00,,,0.10,WUHU216HW,2013-05-26 18:11:00,
2013-05-26 14:16:00,58.3,41.8,29.87,West,270,6.9,9.8,54,0.00,,,0.10,WUHU216HW,2013-05-26 18:16:00,
2013-05-26 14:21:00,58.0,41.4,29.87,WNW,293,4.3,11.4,54,0.00,,,0.10,WUHU216HW,2013-05-26 18:21:00,
2013-05-26 14:26:00,58.0,40.5,29.87,NW,315,5.8,11.4,52,0.00,,,0.10,WUHU216HW,2013-05-26 18:26:00,
2013-05-26 14:31:00,58.5,41.0,29.87,WSW,248,7.2,9.4,52,0.00,,,0.10,WUHU216HW,2013-05-26 18:31:00,
2013-05-26 14:36:00,58.3,41.2,29.87,SW,225,2.5,9.2,53,0.00,,,0.10,WUHU216HW,2013-05-26 18:36:00,
2013-05-26 14:41:00,58.5,41.9,29.87,WNW,293,1.8,7.4,54,0.00,,,0.10,WUHU216HW,2013-05-26 18:41:00,
2013-05-26 14:46:00,58.1,41.6,29.88,NW,315,9.2,9.2,54,0.00,,,0.10,WUHU216HW,2013-05-26 18:46:00,
2013-05-26 14:51:00,57.8,41.2,29.88,NNW,338,1.8,10.5,54,0.00,,,0.10,WUHU216HW,2013-05-26 18:51:00,
2013-05-26 14:56:00,57.2,40.3,29.88,WSW,248,2.7,10.5,53,0.00,,,0.10,WUHU216HW,2013-05-26 18:56:00,
2013-05-26 15:01:00,57.1,40.2,29.88,NNW,338,1.3,9.8,53,0.00,,,0.10,WUHU216HW,2013-05-26 19:01:00,
2013-05-26 15:06:00,57.1,40.6,29.89,West,270,4.9,5.6,54,0.00,,,0.10,WUHU216HW,2013-05-26 19:06:00,
2013-05-26 15:11:00,56.9,40.0,29.89,NW,315,4.7,11.4,53,0.00,,,0.10,WUHU216HW,2013-05-26 19:11:00,
2013-05-26 15:16:00,57.1,40.6,29.89,NNE,23,4.0,11.4,54,0.00,,,0.10,WUHU216HW,2013-05-26 19:16:00,
2013-05-26 15:21:00,57.2,39.3,29.90,NW,315,10.1,12.1,51,0.00,,,0.10,WUHU216HW,2013-05-26 19:21:00,
2013-05-26 15:26:00,56.5,39.1,29.90,North,0,6.9,12.1,52,0.00,,,0.10,WUHU216HW,2013-05-26 19:26:00,
2013-05-26 15:31:00,56.2,39.3,29.90,South,180,7.6,11.2,53,0.00,,,0.10,WUHU216HW,2013-05-26 19:31:00,
2013-05-26 15:36:00,56.3,39.9,29.91,NW,315,3.4,11.2,54,0.00,,,0.10,WUHU216HW,2013-05-26 19:36:00,
2013-05-26 15:41:00,56.5,39.6,29.91,NNE,23,9.8,9.8,53,0.00,,,0.10,WUHU216HW,2013-05-26 19:41:00,
2013-05-26 15:46:00,56.5,40.1,29.91,SW,225,2.5,11.2,54,0.00,,,0.10,WUHU216HW,2013-05-26 19:46:00,
2013-05-26 15:51:00,56.9,40.0,29.91,WNW,293,4.0,11.2,53,0.00,,,0.10,WUHU216HW,2013-05-26 19:51:00,
2013-05-26 15:56:00,56.9,40.0,29.91,ENE,68,3.4,10.5,53,0.00,,,0.10,WUHU216HW,2013-05-26 19:56:00,
2013-05-26 16:01:00,57.1,39.6,29.92,West,270,6.3,10.5,52,0.00,,,0.10,WUHU216HW,2013-05-26 20:01:00,
2013-05-26 16:06:00,57.1,39.2,29.92,NW,315,5.4,12.8,51,0.00,,,0.10,WUHU216HW,2013-05-26 20:06:00,
2013-05-26 16:11:00,57.1,40.2,29.92,NNE,23,11.4,12.8,53,0.00,,,0.10,WUHU216HW,2013-05-26 20:11:00,
2013-05-26 16:16:00,57.1,40.2,29.92,NE,45,2.5,11.4,53,0.00,,,0.10,WUHU216HW,2013-05-26 20:16:00,
2013-05-26 16:21:00,56.9,40.4,29.92,NNW,338,1.6,11.4,54,0.00,,,0.10,WUHU216HW,2013-05-26 20:21:00,
2013-05-26 16:26:00,56.7,39.2,29.92,West,270,4.0,12.5,52,0.00,,,0.10,WUHU216HW,2013-05-26 20:26:00,
2013-05-26 16:31:00,56.7,39.8,29.92,NNW,338,1.3,12.5,53,0.00,,,0.10,WUHU216HW,2013-05-26 20:31:00,
2013-05-26 16:36:00,56.5,39.6,29.92,NW,315,3.4,9.8,53,0.00,,,0.10,WUHU216HW,2013-05-26 20:36:00,
2013-05-26 16:41:00,56.5,39.6,29.93,WNW,293,6.9,10.3,53,0.00,,,0.10,WUHU216HW,2013-05-26 20:41:00,
2013-05-26 16:46:00,56.3,39.4,29.93,WSW,248,7.6,10.5,53,0.00,,,0.10,WUHU216HW,2013-05-26 20:46:00,
2013-05-26 16:51:00,56.5,39.6,29.93,NNE,23,6.3,11.4,53,0.00,,,0.10,WUHU216HW,2013-05-26 20:51:00,
2013-05-26 16:56:00,56.5,40.1,29.93,NNE,23,2.7,11.4,54,0.00,,,0.10,WUHU216HW,2013-05-26 20:56:00,
2013-05-26 17:01:00,56.5,39.6,29.93,North,0,5.6,11.4,53,0.00,,,0.10,WUHU216HW,2013-05-26 21:01:00,
2013-05-26 17:06:00,56.5,39.6,29.93,NW,315,4.0,12.1,53,0.00,,,0.10,WUHU216HW,2013-05-26 21:06:00,
2013-05-26 17:11:00,56.5,40.1,29.94,SW,225,3.4,12.1,54,0.00,,,0.10,WUHU216HW,2013-05-26 21:11:00,
2013-05-26 17:16:00,56.7,40.2,29.94,West,270,2.9,8.1,54,0.00,,,0.10,WUHU216HW,2013-05-26 21:16:00,
2013-05-26 17:21:00,56.7,39.8,29.94,NW,315,2.5,6.0,53,0.00,,,0.10,WUHU216HW,2013-05-26 21:21:00,
2013-05-26 17:26:00,56.5,40.1,29.95,NE,45,3.8,10.1,54,0.00,,,0.10,WUHU216HW,2013-05-26 21:26:00,
2013-05-26 17:31:00,56.7,40.2,29.95,NNW,338,3.1,10.1,54,0.00,,,0.10,WUHU216HW,2013-05-26 21:31:00,
2013-05-26 17:36:00,56.9,40.0,29.95,North,0,4.9,9.2,53,0.00,,,0.10,WUHU216HW,2013-05-26 21:36:00,
2013-05-26 17:41:00,57.2,40.3,29.95,WNW,293,2.5,9.2,53,0.00,,,0.10,WUHU216HW,2013-05-26 21:41:00,
2013-05-26 17:46:00,57.1,40.2,29.95,WNW,293,4.0,8.1,53,0.00,,,0.10,WUHU216HW,2013-05-26 21:46:00,
2013-05-26 17:51:00,56.9,40.0,29.95,NW,315,6.5,8.1,53,0.00,,,0.10,WUHU216HW,2013-05-26 21:51:00,
2013-05-26 17:56:00,56.7,39.8,29.96,NNW,338,3.4,7.4,53,0.00,,,0.10,WUHU216HW,2013-05-26 21:56:00,
2013-05-26 18:01:00,56.7,39.8,29.96,NW,315,8.3,8.5,53,0.00,,,0.10,WUHU216HW,2013-05-26 22:01:00,
2013-05-26 18:06:00,56.5,39.6,29.96,NNW,338,5.1,8.5,53,0.00,,,0.10,WUHU216HW,2013-05-26 22:06:00,
2013-05-26 18:11:00,56.5,39.6,29.96,NW,315,3.4,8.3,53,0.00,,,0.10,WUHU216HW,2013-05-26 22:11:00,
2013-05-26 18:16:00,56.3,39.9,29.97,NNW,338,3.4,8.5,54,0.00,,,0.10,WUHU216HW,2013-05-26 22:16:00,
2013-05-26 18:21:00,56.3,39.9,29.97,West,270,3.6,8.5,54,0.00,,,0.10,WUHU216HW,2013-05-26 22:21:00,
2013-05-26 18:26:00,56.2,39.7,29.97,NE,45,4.7,8.5,54,0.00,,,0.10,WUHU216HW,2013-05-26 22:26:00,
2013-05-26 18:31:00,56.3,39.9,29.97,NNW,338,1.8,9.4,54,0.00,,,0.10,WUHU216HW,2013-05-26 22:31:00,
2013-05-26 18:36:00,56.3,39.9,29.98,WSW,248,6.0,10.1,54,0.00,,,0.10,WUHU216HW,2013-05-26 22:36:00,
2013-05-26 18:41:00,56.3,39.9,29.98,WNW,293,2.7,12.1,54,0.00,,,0.10,WUHU216HW,2013-05-26 22:41:00,
2013-05-26 18:46:00,56.3,39.9,29.98,NW,315,2.9,12.1,54,0.00,,,0.10,WUHU216HW,2013-05-26 22:46:00,
2013-05-26 18:51:00,56.0,39.1,29.99,NNE,23,4.5,9.6,53,0.00,,,0.10,WUHU216HW,2013-05-26 22:51:00,
2013-05-26 18:56:00,55.6,38.7,29.99,ESE,113,2.5,11.4,53,0.00,,,0.10,WUHU216HW,2013-05-26 22:56:00,
2013-05-26 19:01:00,55.4,39.4,29.99,NW,315,1.8,11.4,55,0.00,,,0.10,WUHU216HW,2013-05-26 23:01:00,
2013-05-26 19:06:00,55.4,39.4,29.99,West,270,2.7,14.8,55,0.00,,,0.10,WUHU216HW,2013-05-26 23:06:00,
2013-05-26 19:11:00,55.3,39.2,30.00,NW,315,4.0,14.8,55,0.00,,,0.10,WUHU216HW,2013-05-26 23:11:00,
2013-05-26 19:16:00,55.3,39.2,30.00,NW,315,4.7,8.1,55,0.00,,,0.10,WUHU216HW,2013-05-26 23:16:00,
2013-05-26 19:21:00,55.1,39.1,30.00,NNW,338,1.3,7.4,55,0.00,,,0.10,WUHU216HW,2013-05-26 23:21:00,
2013-05-26 19:26:00,55.1,39.6,30.01,North,0,0.4,7.2,56,0.00,,,0.10,WUHU216HW,2013-05-26 23:26:00,
2013-05-26 19:31:00,54.9,39.4,30.01,WSW,248,8.7,8.7,56,0.00,,,0.10,WUHU216HW,2013-05-26 23:31:00,
2013-05-26 19:36:00,54.7,39.2,30.01,NNW,338,4.9,8.9,56,0.00,,,0.10,WUHU216HW,2013-05-26 23:36:00,
2013-05-26 19:41:00,54.5,39.5,30.01,WSW,248,1.8,8.9,57,0.00,,,0.10,WUHU216HW,2013-05-26 23:41:00,
2013-05-26 19:46:00,54.4,39.9,30.02,SW,225,5.4,7.2,58,0.00,,,0.10,WUHU216HW,2013-05-26 23:46:00,
2013-05-26 19:51:00,54.2,39.7,30.02,NE,45,4.0,7.2,58,0.00,,,0.10,WUHU216HW,2013-05-26 23:51:00,
2013-05-26 19:56:00,54.0,40.0,30.02,WSW,248,1.1,5.8,59,0.00,,,0.10,WUHU216HW,2013-05-26 23:56:00,
2013-05-26 20:01:00,53.6,40.1,30.02,West,270,1.8,5.8,60,0.00,,,0.10,WUHU216HW,2013-05-27 00:01:00,
2013-05-26 20:06:00,53.5,40.0,30.03,WSW,248,5.4,10.3,60,0.00,,,0.10,WUHU216HW,2013-05-27 00:06:00,
2013-05-26 20:11:00,53.3,39.8,30.03,WNW,293,4.0,11.2,60,0.00,,,0.10,WUHU216HW,2013-05-27 00:11:00,
2013-05-26 20:16:00,53.1,39.6,30.03,NW,315,3.6,11.2,60,0.00,,,0.10,WUHU216HW,2013-05-27 00:16:00,
2013-05-26 20:21:00,52.9,39.4,30.02,NNE,23,6.0,9.8,60,0.00,,,0.10,WUHU216HW,2013-05-27 00:21:00,
2013-05-26 20:26:00,52.7,39.6,30.02,WNW,293,1.6,10.7,61,0.00,,,0.10,WUHU216HW,2013-05-27 00:26:00,
2013-05-26 20:31:00,52.6,39.5,30.03,NNE,23,2.9,10.7,61,0.00,,,0.10,WUHU216HW,2013-05-27 00:31:00,
2013-05-26 20:36:00,52.4,39.7,30.03,WNW,293,2.5,4.5,62,0.00,,,0.10,WUHU216HW,2013-05-27 00:36:00,
2013-05-26 20:41:00,52.2,40.0,30.03,SSW,203,1.6,4.9,63,0.00,,,0.10,WUHU216HW,2013-05-27 00:41:00,
2013-05-26 20:46:00,52.2,40.0,30.03,NNE,23,4.0,4.9,63,0.00,,,0.10,WUHU216HW,2013-05-27 00:46:00,
2013-05-26 20:51:00,52.0,39.8,30.03,North,0,4.0,4.9,63,0.00,,,0.10,WUHU216HW,2013-05-27 00:51:00,
2013-05-26 20:56:00,51.8,40.0,30.03,North,0,7.6,7.6,64,0.00,,,0.10,WUHU216HW,2013-05-27 00:56:00,
2013-05-26 21:01:00,51.7,39.9,30.03,West,270,6.9,9.4,64,0.00,,,0.10,WUHU216HW,2013-05-27 01:01:00,
2013-05-26 21:06:00,51.7,39.9,30.03,NNW,338,2.9,9.4,64,0.00,,,0.10,WUHU216HW,2013-05-27 01:06:00,
2013-05-26 21:11:00,51.5,39.7,30.04,NNW,338,2.7,6.9,64,0.00,,,0.10,WUHU216HW,2013-05-27 01:11:00,
2013-05-26 21:16:00,51.5,39.7,30.04,North,0,0.9,5.8,64,0.00,,,0.10,WUHU216HW,2013-05-27 01:16:00,
2013-05-26 21:21:00,51.3,39.5,30.04,North,0,4.0,5.8,64,0.00,,,0.10,WUHU216HW,2013-05-27 01:21:00,
2013-05-26 21:26:00,51.1,39.3,30.05,NE,45,2.5,10.5,64,0.00,,,0.10,WUHU216HW,2013-05-27 01:26:00,
2013-05-26 21:31:00,51.1,39.3,30.05,WNW,293,4.3,10.5,64,0.00,,,0.10,WUHU216HW,2013-05-27 01:31:00,
2013-05-26 21:36:00,50.9,39.2,30.05,SSW,203,1.8,9.8,64,0.00,,,0.10,WUHU216HW,2013-05-27 01:36:00,
2013-05-26 21:41:00,50.9,39.2,30.05,NNW,338,3.1,9.8,64,0.00,,,0.10,WUHU216HW,2013-05-27 01:41:00,
2013-05-26 21:46:00,50.8,39.0,30.05,NNW,338,6.9,6.9,64,0.00,,,0.10,WUHU216HW,2013-05-27 01:46:00,
2013-05-26 21:51:00,50.8,39.4,30.05,WNW,293,5.4,6.9,65,0.00,,,0.10,WUHU216HW,2013-05-27 01:51:00,
2013-05-26 21:56:00,50.6,39.3,30.06,WNW,293,1.1,6.9,65,0.00,,,0.10,WUHU216HW,2013-05-27 01:56:00,
2013-05-26 22:01:00,50.4,38.6,30.06,NW,315,2.0,6.0,64,0.00,,,0.10,WUHU216HW,2013-05-27 02:01:00,
2013-05-26 22:06:00,50.4,39.1,30.06,NW,315,4.0,6.7,65,0.00,,,0.10,WUHU216HW,2013-05-27 02:06:00,
2013-05-26 22:11:00,50.2,38.9,30.06,WSW,248,1.1,6.7,65,0.00,,,0.10,WUHU216HW,2013-05-27 02:11:00,
2013-05-26 22:16:00,50.0,39.1,30.07,WSW,248,2.2,4.7,66,0.00,,,0.10,WUHU216HW,2013-05-27 02:16:00,
2013-05-26 22:21:00,50.0,39.1,30.07,West,270,0.7,4.7,66,0.00,,,0.10,WUHU216HW,2013-05-27 02:21:00,
2013-05-26 22:26:00,49.9,38.9,30.07,SSW,203,1.6,4.5,66,0.00,,,0.10,WUHU216HW,2013-05-27 02:26:00,
2013-05-26 22:31:00,49.7,39.2,30.07,North,0,2.7,6.9,67,0.00,,,0.10,WUHU216HW,2013-05-27 02:31:00,
2013-05-26 22:36:00,49.5,39.3,30.07,WSW,248,1.3,6.9,68,0.00,,,0.10,WUHU216HW,2013-05-27 02:36:00,
2013-05-26 22:41:00,49.5,39.3,30.08,West,270,1.1,4.0,68,0.00,,,0.10,WUHU216HW,2013-05-27 02:41:00,
2013-05-26 22:46:00,49.3,39.2,30.08,WNW,293,1.3,4.0,68,0.00,,,0.10,WUHU216HW,2013-05-27 02:46:00,
2013-05-26 22:51:00,49.1,39.0,30.08,SW,225,0.4,2.7,68,0.00,,,0.10,WUHU216HW,2013-05-27 02:51:00,
2013-05-26 22:56:00,49.0,38.8,30.08,SW,225,1.1,2.2,68,0.00,,,0.10,WUHU216HW,2013-05-27 02:56:00,
2013-05-26 23:01:00,48.8,39.1,30.08,SW,225,0.4,2.5,69,0.00,,,0.10,WUHU216HW,2013-05-27 03:01:00,
2013-05-26 23:06:00,48.8,39.1,30.08,SSW,203,1.6,2.7,69,0.00,,,0.10,WUHU216HW,2013-05-27 03:06:00,
2013-05-26 23:11:00,48.6,39.2,30.08,WSW,248,1.3,2.7,70,0.00,,,0.10,WUHU216HW,2013-05-27 03:11:00,
2013-05-26 23:16:00,48.2,38.9,30.08,SW,225,1.1,2.7,70,0.00,,,0.10,WUHU216HW,2013-05-27 03:16:00,
2013-05-26 23:21:00,47.9,40.0,30.08,SSE,158,1.8,2.2,74,0.00,,,0.10,WUHU216HW,2013-05-27 03:21:00,
2013-05-26 23:26:00,47.3,39.8,30.08,South,180,2.0,2.2,75,0.00,,,0.10,WUHU216HW,2013-05-27 03:26:00,
2013-05-26 23:31:00,47.0,39.4,30.08,SW,225,0.7,2.0,75,0.00,,,0.10,WUHU216HW,2013-05-27 03:31:00,
2013-05-26 23:36:00,46.6,39.8,30.09,SSE,158,0.9,2.2,77,0.00,,,0.10,WUHU216HW,2013-05-27 03:36:00,
2013-05-26 23:41:00,46.3,39.5,30.09,ESE,113,1.1,2.9,77,0.00,,,0.10,WUHU216HW,2013-05-27 03:41:00,
2013-05-26 23:46:00,46.1,39.6,30.09,SSW,203,2.0,2.9,78,0.00,,,0.10,WUHU216HW,2013-05-27 03:46:00,
2013-05-26 23:51:00,45.7,39.2,30.09,WSW,248,0.9,2.0,78,0.00,,,0.10,WUHU216HW,2013-05-27 03:51:00,
2013-05-26 23:56:00,45.7,39.2,30.09,SW,225,1.6,2.0,78,0.00,,,0.10,WUHU216HW,2013-05-27 03:56:00,